Regional Weather Roundup
Issued by NWS Cleveland, OH

Home | Current Version | Previous Version | Graphics & Text | Print | Product List | Glossary On
Versions: 1 2 3 4 5 6 7 8 9 10 11 12 13 14 15 16 17 18 19 20 21 22 23 24 25 26 27 28 29 30 31 32 33 34 35 36 37 38 39 40 41 42 43 44 45 46 47 48 49 50
000
ASUS41 KCLE 270810
RWRCLE
OHIO REGIONAL WEATHER ROUNDUP
NATIONAL WEATHER SERVICE WILMINGTON, OH
300 AM EST SAT DEC 27 2014

NOTE: "FAIR" INDICATES FEW OR NO CLOUDS BELOW 12,000 FEET WITH NO
SIGNIFICANT WEATHER AND/OR OBSTRUCTIONS TO VISIBILITY.

OHZ001>008-015>018-024>027-034-035-043-044-270900-
   NORTHWEST OHIO

CITY           SKY/WX    TMP DP  RH WIND       PRES   REMARKS
DEFIANCE       CLOUDY    45  39  79 S8        30.13R
FINDLAY        CLOUDY    44  37  76 S9        30.14R
TOLEDO EXPRESS CLOUDY    43  37  79 S5        30.13R
TOLEDO METCALF CLOUDY    45  37  73 SW8       30.14R
LIMA           CLOUDY    47  36  65 S9        30.15R
$$

OHZ009>014-019>023-028>033-038-089-270900-
   NORTHEAST OHIO

CITY           SKY/WX    TMP DP  RH WIND       PRES   REMARKS
CLE-HOPKINS    CLEAR     42  33  70 S7        30.18R
CLE-LAKEFRONT  CLOUDY    47  34  60 SW13      30.15R
CUY CO. ARPT   NOT AVBL
LORAIN-ELYRIA  MOCLDY    38  33  82 S6        30.16R
ASHTABULA      MOCLDY    37  31  78 S7        30.18R
AKRON-CANTON   MOCLDY    37  30  75 SW6       30.17S
WOOSTER        PTCLDY    36  31  82 S5        30.18R
MANSFIELD      CLOUDY    45  35  68 SW10      30.16R
YOUNGSTOWN     CLOUDY    41  32  70 S6        30.17R
$$

OHZ042-051>053-060>062-070>072-077>081-270900-
  SOUTHWEST OHIO

CITY           SKY/WX    TMP DP  RH WIND       PRES   REMARKS
CINC-COVINGTON PTCLDY    41  31  67 CALM      30.19R
CINC-LUNKEN    PTCLDY    35  35 100 CALM      30.23R
HAMILTON       MOCLDY    37  34  89 CALM      30.20S
DAYTON         CLOUDY    46  35  65 S9        30.17S
WRIGHT-PAT AFB CLOUDY    45  35  69 S7        30.19R
DAYTON GENERAL CLOUDY    44  35  70 S9        30.18R
WILMINGTON     CLOUDY    40  33  76 S6        30.20R
$$

OHZ036-037-039>041-045>050-054>059-063>069-073>076-082>088-270900-
  CENTRAL AND SOUTHEAST OHIO

CITY           SKY/WX    TMP DP  RH WIND       PRES   REMARKS
COLUMBUS       PTCLDY    35  31  85 CALM      30.20R
OSU AIRPORT    MOCLDY    37  33  85 CALM      30.19R
BOLTON FIELD   MOCLDY    36  32  85 MISG      30.20R
RICKENBACK AFB PTCLDY    36  32  84 CALM      30.20R
NEWARK         MOCLDY    33  31  92 CALM      30.20R
MARION         CLOUDY    42  34  73 S9        30.18R
LANCASTER      MOCLDY    34  32  92 CALM      30.21R
ZANESVILLE     PTCLDY    32  28  85 CALM      30.20R
NEW PHILLY     PTCLDY    36  31  82 SE6       30.20S
$$



USA.gov is the U.S. government's official web portal to all federal, state and local government web resources and services.